Flag for U.S.A. Weather past 2 weeks in Des Moines, Iowa, U.S.A.

Now
38 °F

Passing clouds.


Feels Like: 33 °F
Forecast: 35 / 63 °F
Wind: 6 mph from East

Location: Des Moines International Airport


UV Index: 5 (Moderate)

Visibility: 9 mi


Pressure: 30.31 "Hg

Humidity: 73%

Dew point: 30 °F

Location of Des MoinesLocation

Historic Weather in Des Moines

°F

Des Moines temperature yesterday

Maximum temperature yesterday: 55 °F (at 5:54 PM)
Minimum temperature yesterday: 35 °F (at 4:54 AM)
Average temperature yesterday: 43 °F

Past Weeks' High & Low Weather Summary

 TemperatureHumidityPressure
High85 °F (Apr 12, 3:54 PM)93% (Apr 3, 6:54 AM)30.33 "Hg (Apr 3, 6:54 AM)
Low26 °F (Apr 15, 3:54 AM)13% (Apr 11, 4:54 PM)29.49 "Hg (Apr 12, 8:54 PM)
Average49 °F57%29.91 "Hg
* Reported Apr 3 1:54 AM — Apr 18 1:54 AM, Des Moines, Weather by CustomWeather, © 2014

Note: Actual official high and low records may vary slightly from our data, if they occured in-between our weather recording intervals... More about our weather records

Advertising

Historic Weather Conditions — Data for Previous 24 hours

 ConditionsComfort  
Time TempWeatherWind HumidityBarometerVisibility
1:54 AM
Apr 18
39 °FClear.7 mph70%30.31 "Hg10 mi
12:54 AM41 °FClear.8 mph67%30.32 "Hg10 mi
11:54 PM
Apr 17
43 °FClear.8 mph62%30.31 "Hg10 mi
10:54 PM45 °FClear.8 mph58%30.31 "Hg10 mi
9:54 PM47 °FClear.8 mph52%30.31 "Hg10 mi
8:54 PM50 °FSunny.6 mph44%30.29 "Hg10 mi
7:54 PM52 °FSunny.No wind38%30.27 "Hg10 mi
6:54 PM55 °FPassing clouds.5 mph35%30.27 "Hg10 mi
5:54 PM55 °FPassing clouds.5 mph37%30.27 "Hg10 mi
4:54 PM54 °FPassing clouds.3 mph38%30.27 "Hg10 mi
3:54 PM52 °FPassing clouds.5 mph41%30.27 "Hg10 mi
2:54 PM51 °FBroken clouds.10 mph44%30.29 "Hg10 mi
1:54 PM47 °FPartly sunny.N/A50%30.30 "Hg10 mi
12:54 PM44 °FPartly sunny.12 mph55%30.32 "Hg10 mi
11:54 AM42 °FPartly sunny.13 mph57%30.32 "Hg10 mi
10:54 AM38 °FOvercast.14 mph65%30.33 "Hg10 mi
9:54 AM36 °FOvercast.15 mph70%30.30 "Hg10 mi
8:54 AM36 °FOvercast.16 mph70%30.27 "Hg10 mi
7:54 AM36 °FOvercast.16 mph70%30.25 "Hg10 mi
6:54 AM36 °FOvercast.18 mph73%30.21 "Hg10 mi
5:54 AM35 °FOvercast.14 mph75%30.18 "Hg10 mi
4:54 AM35 °FOvercast.18 mph75%30.16 "Hg10 mi
3:54 AM36 °FOvercast.17 mph75%30.13 "Hg10 mi
Weather by CustomWeather, © 2014

See weather overview